Regional Weather Roundup
Issued by NWS

Home | Current Version | Previous Version | Text Only | Print | Product List | Glossary Off
Versions: 1 2 3 4 5 6 7 8 9 10 11 12 13 14 15 16 17 18 19 20 21 22 23 24 25 26 27 28 29 30 31 32 33 34 35 36 37 38 39 40 41 42 43 44 45 46 47 48 49 50

000
ASUS44 KMEG 161710
RWRTN
TENNESSEE HOURLY STATE WEATHER ROUNDUP
NATIONAL WEATHER SERVICE MEMPHIS TN
1200 PM CDT WED APR 16 2014

TNZ002-004-019-021-049-052-054-088>092-161800-
WEST TENNESSEE

CITY           SKY/WX    TMP DP  RH WIND       PRES   REMARKS
MEMPHIS INTL   PTSUNNY   53  24  32 E9        30.25F
NWS MEMPHIS      N/A     52 N/A N/A MISG        N/A
JACKSON        SUNNY     51  21  30 SE9       30.28F
DYERSBURG      SUNNY     48  25  40 E10       30.30F
UNION CITY     SUNNY     48  25  40 E8        30.29F
PARIS          SUNNY     48  22  36 VRB6      30.30F
LEXINGTON      SUNNY     48  21  34 E7        30.28F
SAVANNAH       SUNNY     54  23  30 CALM      30.28
$$

TNZ008-025-027-028-033-062-065-066-161800-
NORTH MIDDLE TENNESSEE

CITY           SKY/WX    TMP DP  RH WIND       PRES   REMARKS
NASHVILLE      MOSUNNY   51  24  34 NE10      30.33F
DICKSON        SUNNY     46  19  34 E8        30.30F
PORTLAND       SUNNY     46  21  36 E7        30.32F
CLARKSVILLE    SUNNY     48  25  40 E8G18     30.33F
SMYRNA         SUNNY     50  25  38 VRB7      30.33F
MURFREESBORO   SUNNY     50  23  34 E3        30.31F
LIVINGSTON     SUNNY     45  21  38 SE10      30.31
GALLATIN       SUNNY     48  24  39 SE6       30.34F
CROSSVILLE     SUNNY     47  16  29 E9        30.29F
$$

TNZ061-075-076-078-094-096-097-161800-
SOUTH MIDDLE TENNESSEE

CITY           SKY/WX    TMP DP  RH WIND       PRES   REMARKS
LEWISBURG      SUNNY     49  22  34 VRB7      30.30F
FAYETTEVILLE   SUNNY     49  22  34 S6        30.28F
TULLAHOMA      SUNNY     52  19  28 SE5       30.28F
WINCHESTER     SUNNY     52  21  30 SE6       30.28F
MCMINNVILLE    SUNNY     52  25  35 VRB6      30.28F
COLUMBIA       SUNNY     52  32  46 NE9       30.29F
SHELBYVILLE    SUNNY     50  27  40 VRB6      30.31F
$$

TNZ017-018-042-046-047-161800-
NORTHEAST TENNESSEE

CITY           SKY/WX    TMP DP  RH WIND       PRES   REMARKS
TRI CITIES     MOSUNNY   46  16  30 E9        30.33F
ELIZABETHTON   SUNNY     46  19  34 CALM      30.31F
$$

TNZ012-013-036-069-073-074-161800-
CENTRAL EAST TENNESSEE

CITY           SKY/WX    TMP DP  RH WIND       PRES   REMARKS
KNOXVILLE      MOSUNNY   48  23  37 N12G20    30.31F
OAK RIDGE      SUNNY     50  21  32 VRB5      30.33F
$$

TNZ083-085-099-161800-
SOUTHEAST TENNESSEE

CITY           SKY/WX    TMP DP  RH WIND       PRES   REMARKS
CHATTANOOGA    MOSUNNY   52  23  32 NE8       30.30F
$$

SKY/WX REPORTED AS FAIR MEANS FEW OR NO CLOUDS BELOW
12 THOUSAND FEET.




USA.gov is the U.S. government's official web portal to all federal, state and local government web resources and services.